Time,TemperatureF,DewpointF,PressureIn,WindDirection,WindDirectionDegrees,WindSpeedMPH,WindSpeedGustMPH,Humidity,HourlyPrecipIn,Conditions,Clouds,dailyrainin,SoftwareType,DateUTC
2013-01-13 00:05:00,38.3,35.3,29.95,East,90,2.2,5.4,89,0.00,,,0.00,pywws,2013-01-13 00:05:00,
2013-01-13 00:10:00,38.3,35.3,29.94,East,90,2.2,5.4,89,0.00,,,0.00,pywws,2013-01-13 00:10:00,
2013-01-13 00:15:00,38.7,35.7,29.94,North,0,0.7,5.4,89,0.00,,,0.00,pywws,2013-01-13 00:15:00,
2013-01-13 00:20:00,38.5,35.5,29.95,NE,45,3.8,7.6,89,0.00,,,0.00,pywws,2013-01-13 00:20:00,
2013-01-13 00:25:00,38.7,35.4,29.95,East,90,1.6,4.5,88,0.00,,,0.00,pywws,2013-01-13 00:25:00,
2013-01-13 00:30:00,38.7,35.4,29.96,NE,45,0.7,4.5,88,0.00,,,0.00,pywws,2013-01-13 00:30:00,
2013-01-13 00:35:00,38.7,35.1,29.95,SE,135,2.2,5.4,87,0.00,,,0.00,pywws,2013-01-13 00:35:00,
2013-01-13 00:40:00,38.7,34.8,29.96,NE,45,2.2,4.5,86,0.00,,,0.00,pywws,2013-01-13 00:40:00,
2013-01-13 00:46:00,38.8,35.0,29.95,NE,45,0.0,0.7,86,0.00,,,0.00,pywws,2013-01-13 00:46:00,
2013-01-13 00:51:00,38.8,34.7,29.96,NE,45,3.1,7.6,85,0.00,,,0.00,pywws,2013-01-13 00:51:00,
2013-01-13 00:56:00,38.8,34.4,29.96,North,0,2.2,6.9,84,0.00,,,0.00,pywws,2013-01-13 00:56:00,
2013-01-13 01:01:00,38.8,34.4,29.96,North,0,4.5,7.6,84,0.00,,,0.00,pywws,2013-01-13 01:01:00,
2013-01-13 01:05:00,38.8,34.4,29.96,South,180,3.1,7.6,84,0.00,,,0.00,pywws,2013-01-13 01:05:00,
2013-01-13 01:10:00,38.8,34.4,29.96,North,0,4.5,7.6,84,0.00,,,0.00,pywws,2013-01-13 01:10:00,
2013-01-13 01:15:00,38.8,34.4,29.96,East,90,3.8,6.9,84,0.00,,,0.00,pywws,2013-01-13 01:15:00,
2013-01-13 01:20:00,38.8,34.4,29.96,North,0,0.0,0.0,84,0.00,,,0.00,pywws,2013-01-13 01:20:00,
2013-01-13 01:25:00,38.8,34.4,29.96,SE,135,1.6,4.5,84,0.00,,,0.00,pywws,2013-01-13 01:25:00,
2013-01-13 01:30:00,38.7,34.0,29.97,ENE,68,3.8,6.0,83,0.00,,,0.00,pywws,2013-01-13 01:30:00,
2013-01-13 01:35:00,38.8,34.1,29.97,NE,45,3.1,6.0,83,0.00,,,0.00,pywws,2013-01-13 01:35:00,
2013-01-13 01:41:00,38.7,34.0,29.97,NE,45,0.0,0.0,83,0.00,,,0.00,pywws,2013-01-13 01:41:00,
2013-01-13 01:46:00,38.7,34.0,29.97,NNE,22,3.8,7.6,83,0.00,,,0.00,pywws,2013-01-13 01:46:00,
2013-01-13 01:51:00,38.7,34.3,29.97,North,0,0.0,0.0,84,0.00,,,0.00,pywws,2013-01-13 01:51:00,
2013-01-13 01:57:00,38.7,34.3,29.98,NE,45,0.0,1.6,84,0.00,,,0.00,pywws,2013-01-13 01:57:00,
2013-01-13 02:05:00,38.8,34.1,29.98,NE,45,0.0,0.0,83,0.00,,,0.00,pywws,2013-01-13 02:05:00,
2013-01-13 02:10:00,38.8,34.1,29.98,East,90,0.0,0.0,83,0.00,,,0.00,pywws,2013-01-13 02:10:00,
2013-01-13 02:15:00,38.8,33.8,29.98,NE,45,0.0,0.0,82,0.00,,,0.00,pywws,2013-01-13 02:15:00,
2013-01-13 02:20:00,38.8,33.8,29.98,NE,45,0.0,0.0,82,0.00,,,0.00,pywws,2013-01-13 02:20:00,
2013-01-13 02:25:00,38.7,33.6,29.98,NE,45,3.1,9.2,82,0.00,,,0.00,pywws,2013-01-13 02:25:00,
2013-01-13 02:30:00,38.7,33.3,29.98,East,90,2.2,8.3,81,0.00,,,0.00,pywws,2013-01-13 02:30:00,
2013-01-13 02:36:00,38.7,33.3,29.98,East,90,0.0,0.0,81,0.00,,,0.00,pywws,2013-01-13 02:36:00,
2013-01-13 02:41:00,38.7,33.3,29.99,North,0,0.0,0.0,81,0.00,,,0.00,pywws,2013-01-13 02:41:00,
2013-01-13 02:47:00,38.7,33.3,29.98,NE,45,0.0,0.0,81,0.00,,,0.00,pywws,2013-01-13 02:47:00,
2013-01-13 02:52:00,38.5,32.9,29.98,East,90,1.6,6.9,80,0.00,,,0.00,pywws,2013-01-13 02:52:00,
2013-01-13 02:57:00,38.5,32.9,29.97,NE,45,0.0,0.0,80,0.00,,,0.00,pywws,2013-01-13 02:57:00,
2013-01-13 03:05:00,38.5,32.5,29.98,North,0,0.0,0.0,79,0.00,,,0.00,pywws,2013-01-13 03:05:00,
2013-01-13 03:10:00,38.5,32.5,29.98,East,90,6.0,10.7,79,0.00,,,0.00,pywws,2013-01-13 03:10:00,
2013-01-13 03:15:00,38.5,32.5,29.98,NE,45,0.0,0.0,79,0.00,,,0.00,pywws,2013-01-13 03:15:00,
2013-01-13 03:20:00,38.5,32.2,29.98,NW,315,3.8,9.8,78,0.00,,,0.00,pywws,2013-01-13 03:20:00,
2013-01-13 03:26:00,38.5,32.2,29.98,NE,45,3.8,12.1,78,0.00,,,0.00,pywws,2013-01-13 03:26:00,
2013-01-13 03:31:00,38.5,32.2,29.98,East,90,0.0,0.7,78,0.00,,,0.00,pywws,2013-01-13 03:31:00,
2013-01-13 03:36:00,38.5,32.2,29.98,East,90,0.0,0.0,78,0.00,,,0.00,pywws,2013-01-13 03:36:00,
2013-01-13 03:41:00,38.3,32.1,29.99,NW,315,0.0,0.0,78,0.00,,,0.00,pywws,2013-01-13 03:41:00,
2013-01-13 03:46:00,38.1,31.9,29.99,North,0,0.0,0.0,78,0.00,,,0.00,pywws,2013-01-13 03:46:00,
2013-01-13 03:51:00,38.1,31.9,29.99,East,90,0.0,0.0,78,0.00,,,0.00,pywws,2013-01-13 03:51:00,
2013-01-13 03:55:00,38.1,31.9,29.99,North,0,0.0,0.0,78,0.00,,,0.00,pywws,2013-01-13 03:55:00,
2013-01-13 03:56:00,37.9,31.7,29.99,NE,45,0.0,1.6,78,0.00,,,0.00,pywws,2013-01-13 03:56:00,
2013-01-13 03:58:00,37.9,31.7,29.99,NE,45,0.0,0.0,78,0.00,,,0.00,pywws,2013-01-13 03:58:00,
2013-01-13 04:01:00,37.9,31.7,30.00,NE,45,1.6,10.7,78,0.00,,,0.00,pywws,2013-01-13 04:01:00,
2013-01-13 04:04:00,37.9,31.7,29.99,NE,45,1.6,10.7,78,0.00,,,0.00,pywws,2013-01-13 04:04:00,
2013-01-13 04:10:00,37.9,31.7,29.99,NE,45,0.0,0.7,78,0.00,,,0.00,pywws,2013-01-13 04:10:00,
2013-01-13 04:16:00,37.9,31.7,29.99,NE,45,1.6,10.7,78,0.00,,,0.00,pywws,2013-01-13 04:16:00,
2013-01-13 04:21:00,37.9,31.7,29.99,NE,45,0.0,0.0,78,0.00,,,0.00,pywws,2013-01-13 04:21:00,
2013-01-13 04:26:00,37.9,31.7,29.99,NNE,22,0.0,0.0,78,0.00,,,0.00,pywws,2013-01-13 04:26:00,
2013-01-13 04:31:00,37.8,31.5,29.99,NE,45,0.0,0.0,78,0.00,,,0.00,pywws,2013-01-13 04:31:00,
2013-01-13 04:36:00,37.8,31.5,30.00,NE,45,0.0,0.0,78,0.00,,,0.00,pywws,2013-01-13 04:36:00,
2013-01-13 04:41:00,37.8,31.2,30.00,NE,45,0.0,8.3,77,0.00,,,0.00,pywws,2013-01-13 04:41:00,
2013-01-13 04:46:00,37.8,31.2,30.00,ESE,112,0.0,0.0,77,0.00,,,0.00,pywws,2013-01-13 04:46:00,
2013-01-13 04:52:00,37.8,31.2,30.00,NE,45,0.0,0.0,77,0.00,,,0.00,pywws,2013-01-13 04:52:00,
2013-01-13 04:57:00,37.8,30.9,30.00,ENE,68,0.0,0.0,76,0.00,,,0.00,pywws,2013-01-13 04:57:00,
2013-01-13 05:01:00,37.8,30.9,30.00,NE,45,0.0,0.0,76,0.00,,,0.00,pywws,2013-01-13 05:01:00,
2013-01-13 05:05:00,37.8,30.9,30.00,NE,45,0.0,0.0,76,0.00,,,0.00,pywws,2013-01-13 05:05:00,
2013-01-13 05:07:00,37.8,30.9,30.00,NE,45,0.0,0.0,76,0.00,,,0.00,pywws,2013-01-13 05:07:00,
2013-01-13 05:12:00,37.8,30.6,30.01,NE,45,0.0,0.0,75,0.00,,,0.00,pywws,2013-01-13 05:12:00,
2013-01-13 05:17:00,37.8,30.6,30.01,NNE,22,0.0,6.9,75,0.00,,,0.00,pywws,2013-01-13 05:17:00,
2013-01-13 05:22:00,37.6,30.4,30.01,East,90,0.0,0.0,75,0.00,,,0.00,pywws,2013-01-13 05:22:00,
2013-01-13 05:27:00,37.6,30.4,30.01,NE,45,0.0,1.6,75,0.00,,,0.00,pywws,2013-01-13 05:27:00,
2013-01-13 05:32:00,37.6,30.4,30.01,NW,315,0.0,0.0,75,0.00,,,0.00,pywws,2013-01-13 05:32:00,
2013-01-13 05:37:00,37.6,30.4,30.01,NE,45,0.0,0.0,75,0.00,,,0.00,pywws,2013-01-13 05:37:00,
2013-01-13 05:42:00,37.4,30.2,30.01,NNE,22,0.0,3.1,75,0.00,,,0.00,pywws,2013-01-13 05:42:00,
2013-01-13 05:48:00,37.4,30.2,30.02,NE,45,0.0,0.0,75,0.00,,,0.00,pywws,2013-01-13 05:48:00,
2013-01-13 05:53:00,37.4,29.9,30.02,NE,45,0.0,0.0,74,0.00,,,0.00,pywws,2013-01-13 05:53:00,
2013-01-13 05:55:00,37.2,29.7,30.02,ENE,68,0.0,0.7,74,0.00,,,0.00,pywws,2013-01-13 05:55:00,
2013-01-13 05:58:00,37.2,29.7,30.02,ENE,68,0.0,0.7,74,0.00,,,0.00,pywws,2013-01-13 05:58:00,
2013-01-13 06:01:00,37.2,30.0,30.02,North,0,0.7,3.1,75,0.00,,,0.00,pywws,2013-01-13 06:01:00,
2013-01-13 06:04:00,37.2,30.0,30.02,North,0,0.7,3.1,75,0.00,,,0.00,pywws,2013-01-13 06:04:00,
2013-01-13 06:05:00,37.2,29.7,30.02,NE,45,0.0,0.0,74,0.00,,,0.00,pywws,2013-01-13 06:05:00,
2013-01-13 06:07:00,37.2,30.0,30.02,North,0,0.7,3.1,75,0.00,,,0.00,pywws,2013-01-13 06:07:00,
2013-01-13 06:18:00,36.9,29.4,30.03,North,0,0.0,0.0,74,0.00,,,0.00,pywws,2013-01-13 06:18:00,
2013-01-13 06:23:00,36.3,28.8,30.03,NNE,22,4.5,8.3,74,0.00,,,0.00,pywws,2013-01-13 06:23:00,
2013-01-13 06:28:00,36.3,29.2,30.03,South,180,0.0,0.0,75,0.00,,,0.00,pywws,2013-01-13 06:28:00,
2013-01-13 06:33:00,36.3,28.8,30.03,NE,45,0.0,0.0,74,0.00,,,0.00,pywws,2013-01-13 06:33:00,
2013-01-13 06:38:00,36.3,28.8,30.03,NE,45,0.0,0.0,74,0.00,,,0.00,pywws,2013-01-13 06:38:00,
2013-01-13 06:43:00,36.3,28.8,30.04,ENE,68,0.0,0.0,74,0.00,,,0.00,pywws,2013-01-13 06:43:00,
2013-01-13 06:48:00,36.3,28.5,30.04,North,0,1.6,7.6,73,0.00,,,0.00,pywws,2013-01-13 06:48:00,
2013-01-13 06:54:00,36.5,28.3,30.04,NE,45,2.2,6.0,72,0.00,,,0.00,pywws,2013-01-13 06:54:00,
2013-01-13 06:55:00,36.5,28.3,30.04,NE,45,0.0,6.9,72,0.00,,,0.00,pywws,2013-01-13 06:55:00,
2013-01-13 06:58:00,36.7,28.5,30.04,West,270,0.0,3.1,72,0.00,,,0.00,pywws,2013-01-13 06:58:00,
2013-01-13 06:59:00,36.7,28.5,30.04,North,0,0.0,1.6,72,0.00,,,0.00,pywws,2013-01-13 06:59:00,
2013-01-13 07:07:00,36.7,28.5,30.04,West,270,0.0,3.1,72,0.00,,,0.00,pywws,2013-01-13 07:07:00,
2013-01-13 07:12:00,36.7,28.5,30.04,East,90,3.8,10.7,72,0.00,,,0.00,pywws,2013-01-13 07:12:00,
2013-01-13 07:18:00,36.7,28.2,30.04,East,90,0.0,0.0,71,0.00,,,0.00,pywws,2013-01-13 07:18:00,
2013-01-13 07:23:00,36.7,28.2,30.05,NW,315,0.0,0.0,71,0.00,,,0.00,pywws,2013-01-13 07:23:00,
2013-01-13 07:28:00,36.7,27.8,30.05,East,90,0.0,0.0,70,0.00,,,0.00,pywws,2013-01-13 07:28:00,
2013-01-13 07:33:00,36.7,27.8,30.05,NE,45,0.0,6.0,70,0.00,,,0.00,pywws,2013-01-13 07:33:00,
2013-01-13 07:39:00,36.7,27.8,30.05,NE,45,0.0,0.0,70,0.00,,,0.00,pywws,2013-01-13 07:39:00,
2013-01-13 07:44:00,36.7,27.5,30.05,NE,45,0.0,0.7,69,0.00,,,0.00,pywws,2013-01-13 07:44:00,
2013-01-13 07:49:00,36.7,27.8,30.06,West,270,0.0,0.0,70,0.00,,,0.00,pywws,2013-01-13 07:49:00,
2013-01-13 07:54:00,36.7,27.5,30.06,SE,135,0.0,0.0,69,0.00,,,0.00,pywws,2013-01-13 07:54:00,
2013-01-13 07:58:00,36.7,27.8,30.06,NE,45,0.0,0.0,70,0.00,,,0.00,pywws,2013-01-13 07:58:00,
2013-01-13 07:59:00,36.7,27.8,30.06,NW,315,0.0,0.0,70,0.00,,,0.00,pywws,2013-01-13 07:59:00,
2013-01-13 08:01:00,36.7,27.8,30.06,NW,315,0.0,0.0,70,0.00,,,0.00,pywws,2013-01-13 08:01:00,
2013-01-13 08:05:00,36.7,27.8,30.06,NW,315,0.0,0.0,70,0.00,,,0.00,pywws,2013-01-13 08:05:00,
2013-01-13 08:11:00,36.7,27.8,30.06,NW,315,0.0,0.0,70,0.00,,,0.00,pywws,2013-01-13 08:11:00,
2013-01-13 08:16:00,36.7,27.5,30.06,East,90,0.0,0.0,69,0.00,,,0.00,pywws,2013-01-13 08:16:00,
2013-01-13 08:21:00,36.5,27.7,30.06,North,0,0.0,0.0,70,0.00,,,0.00,pywws,2013-01-13 08:21:00,
2013-01-13 08:26:00,36.1,27.3,30.06,NNE,22,0.0,0.0,70,0.00,,,0.00,pywws,2013-01-13 08:26:00,
2013-01-13 08:31:00,36.3,27.5,30.06,NE,45,0.0,0.0,70,0.00,,,0.00,pywws,2013-01-13 08:31:00,
2013-01-13 08:36:00,36.3,27.8,30.07,North,0,0.0,0.0,71,0.00,,,0.00,pywws,2013-01-13 08:36:00,
2013-01-13 08:41:00,36.0,27.5,30.08,NW,315,0.0,0.0,71,0.00,,,0.00,pywws,2013-01-13 08:41:00,
2013-01-13 08:46:00,36.0,27.5,30.09,North,0,0.0,0.0,71,0.00,,,0.00,pywws,2013-01-13 08:46:00,
2013-01-13 08:51:00,36.0,27.5,30.08,North,0,0.0,0.0,71,0.00,,,0.00,pywws,2013-01-13 08:51:00,
2013-01-13 08:56:00,35.8,27.7,30.08,NE,45,0.0,0.0,72,0.00,,,0.00,pywws,2013-01-13 08:56:00,
2013-01-13 09:05:00,35.8,27.7,30.08,NNE,22,0.0,0.0,72,0.00,,,0.00,pywws,2013-01-13 09:05:00,
2013-01-13 09:10:00,35.8,27.7,30.08,NE,45,0.0,0.0,72,0.00,,,0.00,pywws,2013-01-13 09:10:00,
2013-01-13 09:15:00,35.8,28.0,30.09,WSW,248,0.0,0.0,73,0.00,,,0.00,pywws,2013-01-13 09:15:00,
2013-01-13 09:20:00,35.8,28.0,30.09,West,270,0.0,0.7,73,0.00,,,0.00,pywws,2013-01-13 09:20:00,
2013-01-13 09:25:00,35.6,27.5,30.09,NW,315,0.0,0.0,72,0.00,,,0.00,pywws,2013-01-13 09:25:00,
2013-01-13 09:30:00,35.6,27.8,30.09,North,0,0.0,0.0,73,0.00,,,0.00,pywws,2013-01-13 09:30:00,
2013-01-13 09:36:00,35.6,27.8,30.09,North,0,0.0,0.0,73,0.00,,,0.00,pywws,2013-01-13 09:36:00,
2013-01-13 09:41:00,35.6,27.8,30.09,North,0,0.0,0.0,73,0.00,,,0.00,pywws,2013-01-13 09:41:00,
2013-01-13 09:46:00,35.6,27.8,30.09,North,0,0.0,0.0,73,0.00,,,0.00,pywws,2013-01-13 09:46:00,
2013-01-13 09:51:00,35.8,27.7,30.09,North,0,0.0,0.0,72,0.00,,,0.00,pywws,2013-01-13 09:51:00,
2013-01-13 09:57:00,35.8,27.7,30.09,North,0,0.0,0.0,72,0.00,,,0.00,pywws,2013-01-13 09:57:00,
2013-01-13 10:05:00,35.8,28.0,30.10,SE,135,0.0,0.0,73,0.00,,,0.00,pywws,2013-01-13 10:05:00,
2013-01-13 10:10:00,35.8,28.0,30.10,NE,45,0.0,0.0,73,0.00,,,0.00,pywws,2013-01-13 10:10:00,
2013-01-13 10:15:00,35.6,27.8,30.10,NE,45,0.0,0.0,73,0.00,,,0.00,pywws,2013-01-13 10:15:00,
2013-01-13 10:20:00,35.6,27.8,30.10,NE,45,0.0,0.0,73,0.00,,,0.00,pywws,2013-01-13 10:20:00,
2013-01-13 10:25:00,35.6,28.1,30.10,NE,45,0.0,0.0,74,0.00,,,0.00,pywws,2013-01-13 10:25:00,
2013-01-13 10:30:00,35.6,28.1,30.10,North,0,0.0,0.0,74,0.00,,,0.00,pywws,2013-01-13 10:30:00,
2013-01-13 10:35:00,35.8,28.3,30.10,North,0,0.0,0.0,74,0.00,,,0.00,pywws,2013-01-13 10:35:00,
2013-01-13 10:40:00,35.8,28.3,30.10,East,90,0.0,0.0,74,0.00,,,0.00,pywws,2013-01-13 10:40:00,
2013-01-13 10:46:00,36.0,28.2,30.10,North,0,0.0,0.0,73,0.00,,,0.00,pywws,2013-01-13 10:46:00,
2013-01-13 10:51:00,36.1,28.3,30.10,NNE,22,0.0,0.0,73,0.00,,,0.00,pywws,2013-01-13 10:51:00,
2013-01-13 10:56:00,36.3,28.5,30.10,West,270,0.0,0.0,73,0.00,,,0.00,pywws,2013-01-13 10:56:00,
2013-01-13 11:05:00,36.7,28.5,30.10,North,0,0.0,0.0,72,0.00,,,0.00,pywws,2013-01-13 11:05:00,
2013-01-13 11:10:00,37.0,28.9,30.10,North,0,0.0,0.0,72,0.00,,,0.00,pywws,2013-01-13 11:10:00,
2013-01-13 11:15:00,37.0,28.5,30.10,North,0,0.0,0.0,71,0.00,,,0.00,pywws,2013-01-13 11:15:00,
2013-01-13 11:20:00,37.0,28.9,30.10,NNW,338,0.0,0.0,72,0.00,,,0.00,pywws,2013-01-13 11:20:00,
2013-01-13 11:26:00,37.2,28.7,30.10,NE,45,0.0,0.0,71,0.00,,,0.00,pywws,2013-01-13 11:26:00,
2013-01-13 11:31:00,37.2,28.7,30.09,North,0,0.0,0.0,71,0.00,,,0.00,pywws,2013-01-13 11:31:00,
2013-01-13 11:36:00,37.2,28.7,30.09,North,0,0.0,0.0,71,0.00,,,0.00,pywws,2013-01-13 11:36:00,
2013-01-13 11:41:00,37.4,28.5,30.09,East,90,0.0,0.0,70,0.00,,,0.00,pywws,2013-01-13 11:41:00,
2013-01-13 11:46:00,37.4,28.5,30.10,North,0,0.0,0.0,70,0.00,,,0.00,pywws,2013-01-13 11:46:00,
2013-01-13 11:51:00,37.6,29.0,30.10,NE,45,0.0,0.0,71,0.00,,,0.00,pywws,2013-01-13 11:51:00,
2013-01-13 11:57:00,37.8,29.2,30.09,SW,225,0.0,0.0,71,0.00,,,0.00,pywws,2013-01-13 11:57:00,
2013-01-13 12:05:00,37.9,29.0,30.10,NNE,22,0.0,0.0,70,0.00,,,0.00,pywws,2013-01-13 12:05:00,
2013-01-13 12:10:00,38.3,29.4,30.10,North,0,0.0,0.0,70,0.00,,,0.00,pywws,2013-01-13 12:10:00,
2013-01-13 12:15:00,38.5,29.2,30.09,WNW,292,0.0,0.0,69,0.00,,,0.00,pywws,2013-01-13 12:15:00,
2013-01-13 12:20:00,38.7,29.7,30.09,East,90,0.0,0.0,70,0.00,,,0.00,pywws,2013-01-13 12:20:00,
2013-01-13 12:25:00,38.7,29.0,30.09,WSW,248,0.0,0.0,68,0.00,,,0.00,pywws,2013-01-13 12:25:00,
2013-01-13 12:30:00,38.7,29.4,30.09,NE,45,0.0,0.0,69,0.00,,,0.00,pywws,2013-01-13 12:30:00,
2013-01-13 12:36:00,38.7,29.4,30.09,East,90,0.0,0.0,69,0.00,,,0.00,pywws,2013-01-13 12:36:00,
2013-01-13 12:41:00,38.5,28.9,30.09,NE,45,0.0,0.0,68,0.00,,,0.00,pywws,2013-01-13 12:41:00,
2013-01-13 12:46:00,38.5,28.9,30.10,NW,315,0.0,0.0,68,0.00,,,0.00,pywws,2013-01-13 12:46:00,
2013-01-13 12:51:00,38.5,28.5,30.10,NE,45,0.0,0.0,67,0.00,,,0.00,pywws,2013-01-13 12:51:00,
2013-01-13 12:56:00,38.5,28.5,30.10,NE,45,0.0,0.0,67,0.00,,,0.00,pywws,2013-01-13 12:56:00,
2013-01-13 12:58:00,38.5,28.5,30.09,NW,315,0.0,0.0,67,0.00,,,0.00,pywws,2013-01-13 12:58:00,
2013-01-13 13:01:00,38.5,28.5,30.09,NW,315,0.0,0.0,67,0.00,,,0.00,pywws,2013-01-13 13:01:00,
2013-01-13 13:07:00,38.5,28.5,30.09,NW,315,0.0,0.0,67,0.00,,,0.00,pywws,2013-01-13 13:07:00,
2013-01-13 13:12:00,38.5,28.5,30.09,NW,315,0.0,5.4,67,0.00,,,0.00,pywws,2013-01-13 13:12:00,
2013-01-13 13:17:00,38.8,28.8,30.09,East,90,0.0,0.0,67,0.00,,,0.00,pywws,2013-01-13 13:17:00,
2013-01-13 13:22:00,38.8,28.8,30.09,ENE,68,0.0,0.0,67,0.00,,,0.00,pywws,2013-01-13 13:22:00,
2013-01-13 13:27:00,39.0,29.7,30.09,East,90,0.0,0.0,69,0.00,,,0.00,pywws,2013-01-13 13:27:00,
2013-01-13 13:32:00,39.2,29.5,30.09,NE,45,0.0,0.0,68,0.00,,,0.00,pywws,2013-01-13 13:32:00,
2013-01-13 13:37:00,39.0,29.7,30.10,NE,45,0.0,0.0,69,0.00,,,0.00,pywws,2013-01-13 13:37:00,
2013-01-13 13:42:00,38.8,29.2,30.10,NE,45,0.0,0.0,68,0.00,,,0.00,pywws,2013-01-13 13:42:00,
2013-01-13 13:47:00,38.3,29.0,30.09,NW,315,0.0,0.7,69,0.00,,,0.00,pywws,2013-01-13 13:47:00,
2013-01-13 13:52:00,38.5,28.9,30.09,North,0,0.0,0.0,68,0.00,,,0.00,pywws,2013-01-13 13:52:00,
2013-01-13 13:58:00,38.5,29.2,30.09,West,270,0.0,0.0,69,0.00,,,0.00,pywws,2013-01-13 13:58:00,
2013-01-13 14:05:00,38.7,29.4,30.09,NE,45,0.0,0.0,69,0.00,,,0.00,pywws,2013-01-13 14:05:00,
2013-01-13 14:10:00,39.4,29.7,30.09,NE,45,0.0,0.0,68,0.00,,,0.00,pywws,2013-01-13 14:10:00,
2013-01-13 14:15:00,39.6,29.5,30.09,NNW,338,0.0,0.0,67,0.00,,,0.00,pywws,2013-01-13 14:15:00,
2013-01-13 14:20:00,39.4,29.3,30.09,West,270,0.0,0.0,67,0.00,,,0.00,pywws,2013-01-13 14:20:00,
2013-01-13 14:25:00,38.8,29.2,30.09,NW,315,0.0,0.0,68,0.00,,,0.00,pywws,2013-01-13 14:25:00,
2013-01-13 14:30:00,38.3,28.7,30.09,North,0,0.0,0.0,68,0.00,,,0.00,pywws,2013-01-13 14:30:00,
2013-01-13 14:36:00,38.1,28.5,30.10,SW,225,0.0,0.0,68,0.00,,,0.00,pywws,2013-01-13 14:36:00,
2013-01-13 14:41:00,38.7,29.0,30.09,ENE,68,0.0,0.0,68,0.00,,,0.00,pywws,2013-01-13 14:41:00,
2013-01-13 14:46:00,38.8,29.2,30.10,NE,45,0.0,0.0,68,0.00,,,0.00,pywws,2013-01-13 14:46:00,
2013-01-13 14:51:00,38.1,28.5,30.10,NW,315,0.0,0.0,68,0.00,,,0.00,pywws,2013-01-13 14:51:00,
2013-01-13 14:56:00,37.4,28.2,30.11,North,0,0.0,0.0,69,0.00,,,0.00,pywws,2013-01-13 14:56:00,
2013-01-13 14:58:00,37.4,28.5,30.10,East,90,0.0,0.0,70,0.00,,,0.00,pywws,2013-01-13 14:58:00,
2013-01-13 15:05:00,37.4,28.5,30.10,East,90,0.0,0.0,70,0.00,,,0.00,pywws,2013-01-13 15:05:00,
2013-01-13 15:10:00,37.2,28.7,30.11,NW,315,0.0,0.0,71,0.00,,,0.00,pywws,2013-01-13 15:10:00,
2013-01-13 15:15:00,36.9,29.0,30.10,NE,45,0.0,0.0,73,0.00,,,0.00,pywws,2013-01-13 15:15:00,
2013-01-13 15:20:00,36.9,29.4,30.11,NE,45,0.0,0.0,74,0.00,,,0.00,pywws,2013-01-13 15:20:00,
2013-01-13 15:26:00,36.9,28.7,30.11,NW,315,0.0,0.0,72,0.00,,,0.00,pywws,2013-01-13 15:26:00,
2013-01-13 15:31:00,36.9,29.0,30.11,North,0,0.0,0.0,73,0.00,,,0.00,pywws,2013-01-13 15:31:00,
2013-01-13 15:36:00,36.7,28.9,30.11,NW,315,0.0,0.7,73,0.00,,,0.00,pywws,2013-01-13 15:36:00,
2013-01-13 15:41:00,36.7,29.2,30.11,NE,45,0.0,0.0,74,0.00,,,0.00,pywws,2013-01-13 15:41:00,
2013-01-13 15:46:00,36.5,29.3,30.11,NW,315,0.0,0.0,75,0.00,,,0.00,pywws,2013-01-13 15:46:00,
2013-01-13 15:51:00,36.3,29.2,30.11,North,0,0.0,0.0,75,0.00,,,0.00,pywws,2013-01-13 15:51:00,
2013-01-13 15:56:00,36.3,29.2,30.12,NW,315,0.0,0.0,75,0.00,,,0.00,pywws,2013-01-13 15:56:00,
2013-01-13 16:05:00,36.1,29.3,30.12,NE,45,0.0,0.0,76,0.00,,,0.00,pywws,2013-01-13 16:05:00,
2013-01-13 16:10:00,36.0,28.8,30.12,SW,225,0.0,0.0,75,0.00,,,0.00,pywws,2013-01-13 16:10:00,
2013-01-13 16:15:00,36.1,29.0,30.12,North,0,0.0,0.0,75,0.00,,,0.00,pywws,2013-01-13 16:15:00,
2013-01-13 16:20:00,36.0,28.8,30.12,North,0,0.0,0.0,75,0.00,,,0.00,pywws,2013-01-13 16:20:00,
2013-01-13 16:25:00,36.0,28.8,30.12,NE,45,0.0,0.0,75,0.00,,,0.00,pywws,2013-01-13 16:25:00,
2013-01-13 16:30:00,36.0,28.8,30.13,North,0,0.0,0.0,75,0.00,,,0.00,pywws,2013-01-13 16:30:00,
2013-01-13 16:36:00,36.0,28.8,30.13,NE,45,0.0,0.0,75,0.00,,,0.00,pywws,2013-01-13 16:36:00,
2013-01-13 16:41:00,36.0,28.8,30.13,North,0,0.0,0.0,75,0.00,,,0.00,pywws,2013-01-13 16:41:00,
2013-01-13 16:46:00,36.0,28.8,30.13,NW,315,0.0,0.0,75,0.00,,,0.00,pywws,2013-01-13 16:46:00,
2013-01-13 16:51:00,35.8,28.6,30.13,NW,315,0.0,0.0,75,0.00,,,0.00,pywws,2013-01-13 16:51:00,
2013-01-13 16:56:00,35.8,28.6,30.13,North,0,0.0,0.0,75,0.00,,,0.00,pywws,2013-01-13 16:56:00,
2013-01-13 17:05:00,35.8,28.6,30.13,NW,315,0.0,0.0,75,0.00,,,0.00,pywws,2013-01-13 17:05:00,
2013-01-13 17:10:00,35.8,28.6,30.13,East,90,0.0,1.6,75,0.00,,,0.00,pywws,2013-01-13 17:10:00,
2013-01-13 17:15:00,35.6,28.8,30.13,North,0,0.0,0.0,76,0.00,,,0.00,pywws,2013-01-13 17:15:00,
2013-01-13 17:20:00,35.4,28.6,30.13,NW,315,0.0,0.0,76,0.00,,,0.00,pywws,2013-01-13 17:20:00,
2013-01-13 17:25:00,35.4,28.6,30.13,East,90,0.0,0.0,76,0.00,,,0.00,pywws,2013-01-13 17:25:00,
2013-01-13 17:30:00,35.4,28.6,30.13,NE,45,0.0,0.0,76,0.00,,,0.00,pywws,2013-01-13 17:30:00,
2013-01-13 17:36:00,35.4,28.6,30.12,West,270,0.0,0.0,76,0.00,,,0.00,pywws,2013-01-13 17:36:00,
2013-01-13 17:41:00,35.4,28.6,30.13,North,0,0.0,0.0,76,0.00,,,0.00,pywws,2013-01-13 17:41:00,
2013-01-13 17:46:00,35.2,28.4,30.12,SW,225,0.0,0.0,76,0.00,,,0.00,pywws,2013-01-13 17:46:00,
2013-01-13 17:51:00,35.2,28.4,30.13,SE,135,0.0,0.0,76,0.00,,,0.00,pywws,2013-01-13 17:51:00,
2013-01-13 17:56:00,35.2,28.4,30.12,NW,315,0.0,0.0,76,0.00,,,0.00,pywws,2013-01-13 17:56:00,
2013-01-13 18:01:00,35.1,28.3,30.12,NNE,22,0.0,0.0,76,0.00,,,0.00,pywws,2013-01-13 18:01:00,
2013-01-13 18:07:00,35.1,28.3,30.13,NNE,22,0.0,0.0,76,0.00,,,0.00,pywws,2013-01-13 18:07:00,
2013-01-13 18:12:00,34.9,28.4,30.13,East,90,0.0,0.0,77,0.00,,,0.00,pywws,2013-01-13 18:12:00,
2013-01-13 18:17:00,34.5,28.1,30.13,South,180,0.0,0.0,77,0.00,,,0.00,pywws,2013-01-13 18:17:00,
2013-01-13 18:22:00,34.5,28.1,30.14,NE,45,0.0,0.0,77,0.00,,,0.00,pywws,2013-01-13 18:22:00,
2013-01-13 18:27:00,34.3,28.2,30.13,North,0,0.0,0.0,78,0.00,,,0.00,pywws,2013-01-13 18:27:00,
2013-01-13 18:32:00,34.3,28.2,30.14,NW,315,0.0,0.0,78,0.00,,,0.00,pywws,2013-01-13 18:32:00,
2013-01-13 18:37:00,34.3,28.2,30.14,NW,315,0.0,0.0,78,0.00,,,0.00,pywws,2013-01-13 18:37:00,
2013-01-13 18:43:00,34.3,28.2,30.13,North,0,0.0,0.0,78,0.00,,,0.00,pywws,2013-01-13 18:43:00,
2013-01-13 18:48:00,34.3,27.9,30.14,ENE,68,0.0,0.0,77,0.00,,,0.00,pywws,2013-01-13 18:48:00,
2013-01-13 18:53:00,34.3,27.9,30.14,NNW,338,0.0,0.0,77,0.00,,,0.00,pywws,2013-01-13 18:53:00,
2013-01-13 18:58:00,34.3,27.9,30.14,NE,45,0.0,0.0,77,0.00,,,0.00,pywws,2013-01-13 18:58:00,
2013-01-13 19:05:00,34.3,27.9,30.13,North,0,0.0,0.0,77,0.00,,,0.00,pywws,2013-01-13 19:05:00,
2013-01-13 19:10:00,34.2,27.7,30.14,NE,45,0.0,0.0,77,0.00,,,0.00,pywws,2013-01-13 19:10:00,
2013-01-13 19:15:00,34.2,27.7,30.13,North,0,0.0,0.0,77,0.00,,,0.00,pywws,2013-01-13 19:15:00,
2013-01-13 19:20:00,34.2,27.7,30.13,NW,315,0.0,0.0,77,0.00,,,0.00,pywws,2013-01-13 19:20:00,
2013-01-13 19:25:00,34.2,27.7,30.13,NE,45,0.0,0.0,77,0.00,,,0.00,pywws,2013-01-13 19:25:00,
2013-01-13 19:30:00,34.0,27.9,30.14,SW,225,0.0,0.0,78,0.00,,,0.00,pywws,2013-01-13 19:30:00,
2013-01-13 19:36:00,34.0,27.9,30.13,NW,315,0.0,0.0,78,0.00,,,0.00,pywws,2013-01-13 19:36:00,
2013-01-13 19:41:00,34.0,28.2,30.13,NE,45,0.0,0.0,79,0.00,,,0.00,pywws,2013-01-13 19:41:00,
2013-01-13 19:46:00,34.0,27.9,30.13,East,90,0.0,0.0,78,0.00,,,0.00,pywws,2013-01-13 19:46:00,
2013-01-13 19:51:00,33.8,28.0,30.13,East,90,0.0,0.0,79,0.00,,,0.00,pywws,2013-01-13 19:51:00,
2013-01-13 19:56:00,33.8,28.0,30.12,NE,45,0.0,0.0,79,0.00,,,0.00,pywws,2013-01-13 19:56:00,
2013-01-13 20:05:00,33.6,27.8,30.12,NE,45,0.0,0.0,79,0.00,,,0.00,pywws,2013-01-13 20:05:00,
2013-01-13 20:10:00,33.6,27.8,30.13,NE,45,0.0,0.0,79,0.00,,,0.00,pywws,2013-01-13 20:10:00,
2013-01-13 20:15:00,33.6,28.1,30.13,East,90,0.0,0.0,80,0.00,,,0.00,pywws,2013-01-13 20:15:00,
2013-01-13 20:20:00,33.4,27.9,30.13,North,0,0.0,0.0,80,0.00,,,0.00,pywws,2013-01-13 20:20:00,
2013-01-13 20:25:00,33.4,28.2,30.12,North,0,0.0,0.0,81,0.00,,,0.00,pywws,2013-01-13 20:25:00,
2013-01-13 20:30:00,33.3,28.1,30.12,East,90,0.0,0.0,81,0.00,,,0.00,pywws,2013-01-13 20:30:00,
2013-01-13 20:35:00,33.3,28.1,30.12,North,0,0.0,0.0,81,0.00,,,0.00,pywws,2013-01-13 20:35:00,
2013-01-13 20:41:00,33.3,28.1,30.12,WNW,292,0.0,0.0,81,0.00,,,0.00,pywws,2013-01-13 20:41:00,
2013-01-13 20:46:00,33.4,28.2,30.12,NW,315,0.0,0.0,81,0.00,,,0.00,pywws,2013-01-13 20:46:00,
2013-01-13 20:51:00,33.6,28.4,30.12,NW,315,0.0,0.0,81,0.00,,,0.00,pywws,2013-01-13 20:51:00,
2013-01-13 20:57:00,33.6,28.1,30.12,NW,315,0.0,0.0,80,0.00,,,0.00,pywws,2013-01-13 20:57:00,
2013-01-13 21:05:00,33.4,28.2,30.12,NW,315,0.0,0.0,81,0.00,,,0.00,pywws,2013-01-13 21:05:00,
2013-01-13 21:10:00,33.4,27.9,30.12,West,270,0.0,0.0,80,0.00,,,0.00,pywws,2013-01-13 21:10:00,
2013-01-13 21:15:00,33.6,28.1,30.12,North,0,0.0,0.0,80,0.00,,,0.00,pywws,2013-01-13 21:15:00,
2013-01-13 21:20:00,33.6,28.1,30.13,South,180,0.0,0.0,80,0.00,,,0.00,pywws,2013-01-13 21:20:00,
2013-01-13 21:26:00,33.4,27.9,30.12,SE,135,0.0,0.0,80,0.00,,,0.00,pywws,2013-01-13 21:26:00,
2013-01-13 21:31:00,33.3,27.8,30.12,North,0,0.0,0.0,80,0.00,,,0.00,pywws,2013-01-13 21:31:00,
2013-01-13 21:36:00,33.1,27.6,30.12,NW,315,0.0,0.0,80,0.00,,,0.00,pywws,2013-01-13 21:36:00,
2013-01-13 21:41:00,33.1,27.9,30.12,North,0,0.0,0.0,81,0.00,,,0.00,pywws,2013-01-13 21:41:00,
2013-01-13 21:46:00,32.9,27.4,30.12,North,0,0.0,0.0,80,0.00,,,0.00,pywws,2013-01-13 21:46:00,
2013-01-13 21:51:00,32.9,27.7,30.12,NW,315,0.0,0.0,81,0.00,,,0.00,pywws,2013-01-13 21:51:00,
2013-01-13 21:56:00,32.7,27.5,30.12,West,270,0.0,0.0,81,0.00,,,0.00,pywws,2013-01-13 21:56:00,
2013-01-13 22:05:00,32.7,27.5,30.11,SW,225,0.0,0.0,81,0.00,,,0.00,pywws,2013-01-13 22:05:00,
2013-01-13 22:10:00,32.7,27.5,30.11,NW,315,0.0,0.0,81,0.00,,,0.00,pywws,2013-01-13 22:10:00,
2013-01-13 22:15:00,32.5,27.4,30.11,NW,315,0.0,0.0,81,0.00,,,0.00,pywws,2013-01-13 22:15:00,
2013-01-13 22:20:00,32.5,27.4,30.11,NW,315,0.0,0.0,81,0.00,,,0.00,pywws,2013-01-13 22:20:00,
2013-01-13 22:26:00,32.5,27.4,30.11,NW,315,0.0,0.0,81,0.00,,,0.00,pywws,2013-01-13 22:26:00,
2013-01-13 22:31:00,32.7,27.5,30.11,NW,315,0.0,0.0,81,0.00,,,0.00,pywws,2013-01-13 22:31:00,
2013-01-13 22:36:00,32.7,27.5,30.11,NW,315,0.0,0.0,81,0.00,,,0.00,pywws,2013-01-13 22:36:00,
2013-01-13 22:41:00,32.7,27.5,30.11,SW,225,0.0,0.0,81,0.00,,,0.00,pywws,2013-01-13 22:41:00,
2013-01-13 22:46:00,32.7,27.5,30.11,NW,315,0.0,0.0,81,0.00,,,0.00,pywws,2013-01-13 22:46:00,
2013-01-13 22:51:00,32.7,27.5,30.11,NW,315,0.0,0.0,81,0.00,,,0.00,pywws,2013-01-13 22:51:00,
2013-01-13 22:56:00,32.7,27.8,30.11,North,0,0.0,0.0,82,0.00,,,0.00,pywws,2013-01-13 22:56:00,
2013-01-13 23:04:00,32.7,27.8,30.11,NW,315,0.0,0.0,82,0.00,,,0.00,pywws,2013-01-13 23:04:00,
2013-01-13 23:05:00,32.7,27.8,30.11,North,0,0.0,0.0,82,0.00,,,0.00,pywws,2013-01-13 23:05:00,
2013-01-13 23:10:00,32.7,27.8,30.11,NW,315,0.0,0.0,82,0.00,,,0.00,pywws,2013-01-13 23:10:00,
2013-01-13 23:16:00,32.7,27.8,30.11,NW,315,0.0,0.0,82,0.00,,,0.00,pywws,2013-01-13 23:16:00,
2013-01-13 23:22:00,32.5,27.7,30.11,NW,315,0.0,0.0,82,0.00,,,0.00,pywws,2013-01-13 23:22:00,
2013-01-13 23:27:00,32.5,28.0,30.11,West,270,0.0,0.0,83,0.00,,,0.00,pywws,2013-01-13 23:27:00,
2013-01-13 23:32:00,32.5,28.0,30.10,West,270,0.0,0.0,83,0.00,,,0.00,pywws,2013-01-13 23:32:00,
2013-01-13 23:37:00,32.5,28.0,30.10,NW,315,0.0,0.0,83,0.00,,,0.00,pywws,2013-01-13 23:37:00,
2013-01-13 23:42:00,32.4,27.8,30.10,NW,315,0.0,0.0,83,0.00,,,0.00,pywws,2013-01-13 23:42:00,
2013-01-13 23:47:00,32.4,27.8,30.10,NW,315,0.0,0.0,83,0.00,,,0.00,pywws,2013-01-13 23:47:00,
2013-01-13 23:52:00,32.4,27.8,30.10,West,270,0.0,0.0,83,0.00,,,0.00,pywws,2013-01-13 23:52:00,
2013-01-13 23:57:00,32.2,27.6,30.09,West,270,0.0,0.0,83,0.00,,,0.00,pywws,2013-01-13 23:57:00,
2013-01-13 23:58:00,32.2,27.6,30.09,West,270,0.0,0.0,83,0.00,,,0.00,pywws,2013-01-13 23:58:00,